Le nostre stazioni meteo in Italia

Pubblicità
Il mio iltempo24.it
Decimomannu, Italia (16546): Temperatura & dewpoint: 17.01.2017 19:00:00 - 23.01.2017 19:00:00 (CET)Decimomannu, Italia (16546): velocità del vento: 17.01.2017 19:00:00 - 23.01.2017 19:00:00 (CET)Decimomannu, Italia (16546): direzione del vento: 17.01.2017 19:00:00 - 23.01.2017 19:00:00 (CET)Decimomannu, Italia (16546): reduced air pressure: 17.01.2017 19:00:00 - 23.01.2017 19:00:00 (CET)Decimomannu, Italia (16546): visibility: 17.01.2017 19:00:00 - 23.01.2017 19:00:00 (CET)
Data & Tempo tt [°C] td [°C] ff [km/h] ff [kn] dd ppp [hPa] vv [km]
23.01.2017 19:00:00 9,6 6,7 8 4 ENE 1010,7 12
23.01.2017 18:00:00 11,0 8,0 8 4 S - 10
23.01.2017 17:00:00 13,0 6,0 11 6 SSE - 10
23.01.2017 16:00:00 15,2 5,4 11 6 S 1009,9 18
23.01.2017 15:00:00 15,0 5,0 16 9 S - 10
23.01.2017 14:00:00 15,0 4,0 15 8 SSE - 10
23.01.2017 13:00:00 14,0 6,8 16 9 SE 1010,6 20
23.01.2017 12:00:00 14,0 8,0 11 6 SSE - 10
23.01.2017 11:00:00 12,0 9,0 2 1 OSO - 10
23.01.2017 10:00:00 10,4 8,2 4 2 O 1011,6 18
23.01.2017 09:00:00 8,0 6,0 4 2 NO - 10
23.01.2017 08:00:00 6,0 4,0 8 4 NO - 10
23.01.2017 07:00:00 5,0 3,2 5 3 ONO 1010,9 10
23.01.2017 06:00:00 5,0 3,0 5 3 NO - 10
23.01.2017 05:00:00 6,0 4,0 5 3 N - 10
23.01.2017 04:00:00 5,8 4,3 5 3 NNO 1011,8 12
23.01.2017 03:00:00 7,0 5,0 8 4 ENE - 10
23.01.2017 02:00:00 7,0 6,0 9 5 ENE - 10
23.01.2017 01:00:00 9,4 7,0 9 5 ENE 1012,6 10
23.01.2017 00:00:00 10,0 8,0 9 5 E - 10
22.01.2017 23:00:00 10,0 8,0 2 1 ENE - 10
22.01.2017 22:00:00 9,6 7,5 8 4 E 1012,5 12
22.01.2017 21:00:00 10,0 8,0 9 5 ESE - 10
22.01.2017 20:00:00 10,0 9,0 11 6 E - 10
22.01.2017 19:00:00 11,6 9,9 15 8 SE 1012,1 12
22.01.2017 18:00:00 12,0 10,0 22 12 SE - 10
22.01.2017 17:00:00 13,0 10,0 26 14 SE - 10
22.01.2017 16:00:00 15,0 10,6 37 20 SE 1011,8 12
22.01.2017 15:00:00 15,0 10,0 35 19 SE - 10
22.01.2017 14:00:00 15,0 11,0 41 22 SE - 10
22.01.2017 13:00:00 15,6 11,0 37 20 SE 1012,8 12
22.01.2017 12:00:00 15,0 10,0 34 18 ESE - 10
22.01.2017 11:00:00 15,0 10,0 26 14 ESE - 10
22.01.2017 10:00:00 13,0 8,9 15 8 ESE 1012,8 10
22.01.2017 09:00:00 12,0 8,0 15 8 ESE - 10
22.01.2017 08:00:00 10,0 7,0 22 12 ESE - 10
22.01.2017 07:00:00 10,2 6,7 22 12 ESE 1011,3 10
22.01.2017 06:00:00 10,0 6,0 26 14 ESE - 10
22.01.2017 05:00:00 10,0 8,0 16 9 ESE - 10
22.01.2017 04:00:00 10,0 7,6 13 7 E 1011,5 10
22.01.2017 03:00:00 9,0 7,0 9 5 ESE - 10
22.01.2017 02:00:00 10,0 8,0 8 4 ESE - 10
22.01.2017 01:00:00 10,4 8,2 9 5 ESE 1011,5 10
22.01.2017 00:00:00 10,0 8,0 4 2 E - 10
21.01.2017 23:00:00 11,0 8,0 16 9 E - 10
21.01.2017 22:00:00 11,8 8,1 11 6 E 1011,6 10
21.01.2017 21:00:00 12,0 8,0 18 10 SE - 10
21.01.2017 20:00:00 12,0 9,0 18 10 SE - 10
21.01.2017 19:00:00 12,6 8,5 21 11 SE 1009,5 10
21.01.2017 18:00:00 13,0 8,0 34 18 SE - 8
21.01.2017 17:00:00 14,0 9,0 28 15 ESE - 8
21.01.2017 16:00:00 12,0 10,1 42 23 ESE 1007,9 5
21.01.2017 15:00:00 13,0 11,0 46 25 E - 6
21.01.2017 14:00:00 13,0 10,0 52 28 E - 7
21.01.2017 13:00:00 12,4 10,0 35 19 E 1009,5 5
21.01.2017 12:00:00 12,0 10,0 35 19 E - 4,0
21.01.2017 11:00:00 12,0 10,0 39 21 ESE - 5
21.01.2017 10:00:00 12,8 10,9 54 29 ESE 1011,4 4,0
21.01.2017 09:00:00 13,0 9,0 44 24 E - 8
21.01.2017 08:00:00 13,0 11,0 35 19 E - 10
21.01.2017 07:00:00 12,0 9,6 35 19 E 1013,6 8
21.01.2017 06:00:00 13,0 9,0 29 16 ESE - 10
21.01.2017 05:00:00 12,0 10,0 24 13 E - 10
21.01.2017 04:00:00 12,0 10,1 24 13 E 1015,3 15
21.01.2017 03:00:00 13,0 9,0 34 18 E - 10
21.01.2017 02:00:00 13,0 8,0 35 19 E - 10
21.01.2017 01:00:00 12,2 8,3 28 15 E 1016,6 10
21.01.2017 00:00:00 12,0 8,0 34 18 E - 10
20.01.2017 23:00:00 12,0 7,0 16 9 E - 10
20.01.2017 22:00:00 11,2 6,9 11 6 E 1019,5 12
20.01.2017 21:00:00 10,0 7,0 13 7 ESE - 10
20.01.2017 20:00:00 10,0 7,0 16 9 ESE - 10
20.01.2017 19:00:00 10,2 7,1 15 8 E 1019,2 10
20.01.2017 18:00:00 10,0 8,0 9 5 E - 10
20.01.2017 17:00:00 12,0 8,0 16 9 E - 10
20.01.2017 16:00:00 12,2 7,9 18 10 ESE 1019,4 12
20.01.2017 15:00:00 13,0 9,0 29 16 ESE - 10
20.01.2017 14:00:00 14,0 8,0 28 15 E - 10
20.01.2017 13:00:00 14,4 7,9 28 15 ESE 1021,0 12
20.01.2017 12:00:00 13,0 8,0 28 15 ESE - 10
20.01.2017 11:00:00 12,0 8,0 24 13 E - 10
20.01.2017 10:00:00 10,4 7,6 13 7 ESE 1022,4 10
20.01.2017 09:00:00 7,0 4,0 11 6 E - 8
20.01.2017 08:00:00 3,0 0,0 8 4 ENE - 8
20.01.2017 07:00:00 2,4 0,3 4 2 SE 1023,0 12
20.01.2017 06:00:00 3,0 1,0 4 2 N - 10
20.01.2017 05:00:00 1,0 -1,0 4 2 N - 10
20.01.2017 04:00:00 1,2 -0,9 4 2 N 1023,0 12
20.01.2017 03:00:00 2,0 0,0 4 2 NNO - 10
20.01.2017 02:00:00 2,0 0,0 2 1 NO - 10
20.01.2017 01:00:00 2,4 0,5 8 4 S 1023,0 15
20.01.2017 00:00:00 2,0 0,0 5 3 NO - 10
19.01.2017 23:00:00 3,0 1,0 8 4 NNO - 10
19.01.2017 22:00:00 4,0 2,4 8 4 O 1023,2 10
19.01.2017 21:00:00 5,0 4,0 4 2 N - 10
19.01.2017 20:00:00 7,0 4,0 9 5 NNE - 10
19.01.2017 19:00:00 8,0 4,8 4 2 ENE 1021,9 12
19.01.2017 18:00:00 9,0 5,0 15 8 ENE - 10
19.01.2017 17:00:00 10,0 5,0 11 6 ENE - 10
19.01.2017 16:00:00 10,4 5,2 15 8 ENE 1020,4 20
19.01.2017 15:00:00 10,0 5,0 13 7 ENE - 10
19.01.2017 14:00:00 12,0 5,0 18 10 ENE - 10
19.01.2017 13:00:00 10,8 6,6 4 2 OSO 1020,4 15
19.01.2017 12:00:00 8,0 4,0 4 2 O - 10
19.01.2017 11:00:00 6,0 3,0 5 3 NNO - 10
19.01.2017 10:00:00 2,8 0,5 8 4 N 1020,5 20
19.01.2017 09:00:00 0,0 -2,0 8 4 ONO - 10
19.01.2017 08:00:00 -1,0 -3,0 8 4 NNO - 10
19.01.2017 07:00:00 -0,2 -2,1 5 3 N 1019,1 12
19.01.2017 06:00:00 0,0 -2,0 2 1 O - 10
19.01.2017 05:00:00 0,0 -2,0 2 1 N - 10
19.01.2017 04:00:00 0,4 -1,5 9 5 NNO 1018,7 12
19.01.2017 03:00:00 0,0 -2,0 5 3 ONO - 10
19.01.2017 02:00:00 0,0 -2,0 4 2 ONO - 10
19.01.2017 01:00:00 1,2 -0,9 5 3 ONO 1016,7 12
19.01.2017 00:00:00 - - - - - - -
18.01.2017 23:00:00 2,0 0,0 13 7 N - 10
18.01.2017 22:00:00 2,4 0,6 4 2 NNE 1016,2 12
18.01.2017 21:00:00 3,0 1,0 5 3 N - 10
18.01.2017 20:00:00 3,0 1,0 0 0 N - 10
18.01.2017 19:00:00 3,8 2,2 0 0 N 1014,6 10
18.01.2017 18:00:00 6,0 4,0 8 4 SO - 10
18.01.2017 17:00:00 7,0 5,0 0 0 N - 10
18.01.2017 16:00:00 6,4 4,6 4 2 N 1012,6 12
18.01.2017 15:00:00 7,0 5,0 11 6 NNE - 10
18.01.2017 14:00:00 7,0 5,0 18 10 NNO - 8
18.01.2017 13:00:00 8,0 4,6 11 6 NNO 1011,2 9
18.01.2017 12:00:00 8,0 5,0 18 10 NNO - 8
18.01.2017 11:00:00 6,0 4,0 18 10 NNO - 10
18.01.2017 10:00:00 6,4 3,2 22 12 N 1009,7 12
18.01.2017 09:00:00 6,0 3,0 22 12 NNO - 10
18.01.2017 08:00:00 5,0 2,0 22 12 NNO - 10
18.01.2017 07:00:00 5,0 2,5 21 11 NNO 1007,5 12
18.01.2017 06:00:00 5,0 3,0 21 11 NO - 10
18.01.2017 05:00:00 4,0 2,0 16 9 NO - 10
18.01.2017 04:00:00 4,2 2,4 16 9 NO 1006,9 12
18.01.2017 03:00:00 4,0 2,0 22 12 NNO - 10
18.01.2017 02:00:00 4,0 2,0 18 10 NO - 10
18.01.2017 01:00:00 5,2 2,6 28 15 NNO 1005,1 10
18.01.2017 00:00:00 5,0 2,0 22 12 NNO - 10
17.01.2017 23:00:00 5,0 2,0 28 15 NO - 10
17.01.2017 22:00:00 5,6 2,1 35 19 NNO 1004,1 12
17.01.2017 21:00:00 5,0 2,0 28 15 NO - 10
17.01.2017 20:00:00 5,0 2,0 29 16 NO - 10
17.01.2017 19:00:00 5,0 1,8 22 12 NO 1003,9 10

tt = Temperatura
td = dewpoint
ff = velocità del vento
dd = direzione del vento
ppp = reduced air pressure
vv = visibility

Stazioni seguenti

WeatherPro
AMSI
MeteoEarth